This is the latest recevied weather packets stored in our database for station/object W7PLC. If no packets are shown the sender has not sent any weather packets the latest 10 day(s).
| Time | Temp. | Humidity | Pressure | Rain* | Wind** | Luminosity | Snow |
|---|---|---|---|---|---|---|---|
| 1777650190 | 14.44° C | 81% | 1015.7 hPa | 0 mm | - | 168 W/m² | - |
| 1777649888 | 15.56° C | 80% | 1015.4 hPa | 0 mm | - | 180 W/m² | - |
| 1777649585 | 15° C | 81% | 1015.4 hPa | 0 mm | - | 185 W/m² | - |
| 1777649281 | 14.44° C | 82% | 1015.7 hPa | 0 mm | - | 173 W/m² | - |
| 1777648978 | 13.33° C | 86% | 1015.8 hPa | 0 mm | - | 180 W/m² | - |
| 1777648676 | 12.78° C | 86% | 1015.8 hPa | 0 mm | - | 66 W/m² | - |
| 1777648371 | 12.78° C | 89% | 1015.7 hPa | 0 mm | - | 55 W/m² | - |
| 1777648068 | 12.22° C | 90% | 1015.4 hPa | 0 mm | - | 50 W/m² | - |
| 1777647764 | 12.22° C | 89% | 1015.6 hPa | 0 mm | - | 45 W/m² | - |
| 1777647460 | 12.22° C | 90% | 1015.4 hPa | 0 mm | - | 43 W/m² | - |
| 1777647158 | 11.67° C | 91% | 1015.8 hPa | 0 mm | - | 40 W/m² | - |
| 1777646854 | 11.67° C | 92% | 1015.5 hPa | 0 mm | - | 38 W/m² | - |
| 1777646550 | 11.11° C | 93% | 1015.5 hPa | 0 mm | - | 36 W/m² | - |
| 1777646246 | 10.56° C | 94% | 1015.6 hPa | 0 mm | - | 34 W/m² | - |
| 1777645944 | 10.56° C | 94% | 1015.3 hPa | 0 mm | - | 32 W/m² | - |
| 1777645641 | 10° C | 95% | 1015.3 hPa | 0 mm | - | 29 W/m² | - |
| 1777645337 | 10° C | 95% | 1015.3 hPa | 0 mm | - | 27 W/m² | - |
| 1777645032 | 10° C | 95% | 1015.3 hPa | 0 mm | - | 24 W/m² | - |
| 1777644730 | 9.44° C | 96% | 1015.2 hPa | 0 mm | - | 22 W/m² | - |
| 1777644427 | 9.44° C | 96% | 1015.1 hPa | 0 mm | - | 21 W/m² | - |
| 1777644123 | 8.89° C | 97% | 1015.1 hPa | 0 mm | - | 19 W/m² | - |
| 1777643819 | 8.89° C | 97% | 1015.1 hPa | 0 mm | - | 17 W/m² | - |
| 1777643517 | 8.89° C | 97% | 1015.1 hPa | 0 mm | - | 16 W/m² | - |
| 1777643213 | 8.89° C | 98% | 1015.1 hPa | 0 mm | - | 13 W/m² | - |
| 1777642910 | 8.89° C | 98% | 1014.8 hPa | 0 mm | - | 12 W/m² | - |
* Rain latest hour (hover to see other rain measurements)
** Current wind speed in m/s (hover to see current wind gust speed)